QPF
0.04 0.04 0.03 0.05 0.08 0.09 0.07 0.04 0.04 0.05 0.05 0.04 0.06 0.06 0.05 0.05 0.05 0.04 0.03 0.03 0.02 0.02 0.01 0.02 0.02 0.02 0.01 0.01 0.01 0.01 0.01 0.01 0.01 0.01 0.00 0.00 0.00 0.00 0.00 0.00 0.00 0.00 0.00
0.03 0.04 0.03 0.04 0.06 0.06 0.06 0.05 0.04 0.04 0.05 0.04 0.05 0.05 0.05 0.05 0.05 0.05 0.04 0.03 0.02 0.02 0.02 0.02 0.03 0.02 0.01 0.01 0.00 0.00 0.00 0.01 0.01 0.01 0.00 0.00 0.00 0.00 0.00 0.00 0.00 0.00 0.00
0.02 0.03 0.04 0.03 0.03 0.03 0.04 0.05 0.06 0.05 0.05 0.04 0.04 0.05 0.04 0.04 0.05 0.05 0.05 0.04 0.03 0.02 0.02 0.02 0.02 0.02 0.01 0.01 0.01 0.00 0.00 0.00 0.01 0.01 0.00 0.01 0.00 0.00 0.00 0.00 0.00 0.00 0.00
0.01 0.02 0.03 0.03 0.03 0.03 0.04 0.04 0.05 0.07 0.07 0.05 0.04 0.04 0.05 0.05 0.06 0.05 0.05 0.05 0.04 0.03 0.02 0.02 0.02 0.02 0.02 0.02 0.01 0.01 0.01 0.00 0.00 0.00 0.01 0.01 0.01 0.01 0.01 0.01 0.01 0.01 0.01
0.01 0.01 0.02 0.03 0.03 0.04 0.05 0.05 0.06 0.06 0.06 0.07 0.06 0.05 0.05 0.06 0.05 0.05 0.04 0.05 0.05 0.05 0.04 0.04 0.03 0.03 0.02 0.02 0.01 0.01 0.01 0.01 0.01 0.01 0.02 0.02 0.02 0.02 0.02 0.02 0.02 0.01 0.01
0.01 0.02 0.04 0.04 0.04 0.04 0.04 0.05 0.05 0.05 0.06 0.07 0.08 0.07 0.06 0.05 0.05 0.06 0.07 0.08 0.08 0.08 0.07 0.06 0.05 0.04 0.03 0.02 0.01 0.01 0.01 0.02 0.02 0.03 0.03 0.03 0.04 0.03 0.03 0.03 0.02 0.02 0.01
0.02 0.01 0.02 0.04 0.05 0.05 0.03 0.03 0.04 0.04 0.05 0.07 0.10 0.11 0.11 0.11 0.11 0.10 0.11 0.10 0.09 0.08 0.07 0.07 0.06 0.04 0.03 0.02 0.02 0.02 0.02 0.02 0.02 0.02 0.02 0.03 0.04 0.03 0.03 0.02 0.03 0.03 0.02
0.02 0.02 0.01 0.02 0.03 0.04 0.03 0.03 0.04 0.04 0.04 0.05 0.08 0.10 0.12 0.11 0.10 0.10 0.10 0.09 0.09 0.09 0.08 0.08 0.07 0.05 0.04 0.03 0.03 0.02 0.02 0.02 0.02 0.01 0.02 0.02 0.02 0.02 0.02 0.02 0.02 0.02 0.02
0.01 0.01 0.01 0.01 0.02 0.03 0.03 0.03 0.03 0.04 0.04 0.04 0.06 0.08 0.10 0.09 0.08 0.08 0.09 0.09 0.10 0.09 0.07 0.06 0.05 0.04 0.04 0.03 0.03 0.03 0.03 0.03 0.02 0.01 0.01 0.01 0.01 0.01 0.01 0.01 0.01 0.01 0.01
0.01 0.01 0.01 0.01 0.02 0.02 0.02 0.03 0.04 0.05 0.05 0.05 0.05 0.06 0.06 0.07 0.07 0.07 0.06 0.06 0.08 0.09 0.09 0.09 0.07 0.06 0.05 0.04 0.03 0.04 0.04 0.03 0.03 0.03 0.03 0.02 0.02 0.01 0.01 0.01 0.01 0.02 0.02
0.01 0.02 0.02 0.03 0.04 0.04 0.04 0.05 0.06 0.06 0.06 0.06 0.06 0.06 0.06 0.07 0.08 0.07 0.07 0.06 0.07 0.08 0.09 0.09 0.07 0.06 0.05 0.05 0.05 0.04 0.05 0.05 0.05 0.05 0.04 0.03 0.03 0.02 0.02 0.02 0.02 0.02 0.02
0.02 0.02 0.02 0.03 0.04 0.05 0.05 0.06 0.07 0.07 0.07 0.06 0.07 0.08 0.08 0.08 0.09 0.10 0.09 0.09 0.08 0.07 0.07 0.06 0.06 0.06 0.05 0.05 0.05 0.05 0.06 0.05 0.04 0.04 0.03 0.02 0.02 0.03 0.03 0.03 0.04 0.04 0.03
0.02 0.03 0.04 0.04 0.06 0.06 0.07 0.09 0.11 0.10 0.09 0.11 0.10 0.10 0.10 0.10 0.10 0.10 0.10 0.11 0.10 0.08 0.08 0.08 0.08 0.07 0.05 0.04 0.04 0.04 0.03 0.03 0.02 0.02 0.02 0.02 0.02 0.03 0.03 0.03 0.04 0.04 0.03
0.05 0.06 0.05 0.05 0.07 0.09 0.10 0.11 0.14 0.13 0.09 0.14 0.15 0.13 0.12 0.12 0.11 0.09 0.08 0.09 0.09 0.09 0.09 0.08 0.06 0.05 0.04 0.03 0.03 0.02 0.02 0.02 0.01 0.01 0.01 0.02 0.02 0.02 0.02 0.02 0.03 0.03 0.03
0.05 0.06 0.08 0.09 0.09 0.12 0.11 0.11 0.13 0.15 0.14 0.14 0.15 0.13 0.12 0.11 0.10 0.09 0.08 0.08 0.08 0.07 0.06 0.05 0.04 0.03 0.03 0.02 0.02 0.02 0.01 0.01 0.01 0.01 0.02 0.02 0.02 0.02 0.02 0.02 0.01 0.01 0.01
0.04 0.05 0.08 0.09 0.11 0.13 0.13 0.14 0.13 0.14 0.15 0.14 0.14 0.13 0.12 0.13 0.13 0.10 0.08 0.07 0.07 0.07 0.07 0.05 0.04 0.03 0.02 0.01 0.01 0.01 0.01 0.01 0.02 0.02 0.02 0.02 0.02 0.02 0.02 0.02 0.02 0.02 0.01
0.07 0.08 0.08 0.08 0.11 0.14 0.15 0.15 0.14 0.14 0.13 0.12 0.12 0.12 0.11 0.11 0.11 0.10 0.09 0.08 0.08 0.08 0.07 0.07 0.06 0.05 0.03 0.03 0.02 0.02 0.02 0.02 0.03 0.03 0.03 0.03 0.04 0.04 0.05 0.04 0.03 0.02 0.01
0.06 0.07 0.08 0.09 0.12 0.15 0.16 0.17 0.17 0.16 0.15 0.14 0.12 0.12 0.12 0.10 0.08 0.08 0.09 0.09 0.10 0.08 0.06 0.06 0.06 0.06 0.05 0.04 0.03 0.03 0.03 0.04 0.04 0.05 0.06 0.05 0.05 0.04 0.04 0.03 0.02 0.01 0.01
0.04 0.06 0.08 0.10 0.11 0.13 0.15 0.14 0.13 0.12 0.13 0.13 0.11 0.10 0.10 0.09 0.09 0.09 0.09 0.09 0.09 0.09 0.08 0.07 0.07 0.07 0.06 0.05 0.05 0.05 0.06 0.07 0.07 0.06 0.05 0.04 0.03 0.03 0.02 0.02 0.02 0.02 0.02
0.04 0.05 0.07 0.08 0.08 0.09 0.09 0.09 0.09 0.09 0.08 0.08 0.07 0.06 0.05 0.05 0.06 0.09 0.10 0.09 0.10 0.11 0.11 0.10 0.09 0.09 0.08 0.06 0.06 0.06 0.06 0.06 0.05 0.04 0.03 0.03 0.02 0.02 0.02 0.02 0.02 0.02 0.02
0.03 0.03 0.05 0.05 0.06 0.07 0.07 0.07 0.07 0.08 0.09 0.09 0.10 0.12 0.11 0.07 0.07 0.07 0.09 0.10 0.09 0.09 0.09 0.09 0.09 0.08 0.07 0.06 0.06 0.05 0.04 0.03 0.03 0.02 0.02 0.01 0.01 0.01 0.01 0.01 0.01 0.01 0.01
0.03 0.03 0.04 0.04 0.05 0.07 0.07 0.07 0.07 0.08 0.09 0.08 0.08 0.10 0.12 0.10 0.08 0.08 0.08 0.08 0.08 0.07 0.07 0.07 0.07 0.07 0.06 0.05 0.04 0.04 0.03 0.02 0.01 0.01 0.01 0.01 0.01 0.01 0.01 0.01 0.01 0.02 0.02
0.04 0.03 0.03 0.03 0.04 0.07 0.08 0.07 0.07 0.08 0.08 0.07 0.07 0.06 0.06 0.06 0.07 0.07 0.07 0.07 0.07 0.07 0.07 0.07 0.07 0.06 0.05 0.04 0.02 0.02 0.01 0.01 0.01 0.01 0.01 0.02 0.02 0.03 0.03 0.02 0.02 0.02 0.02
0.07 0.05 0.05 0.04 0.04 0.05 0.08 0.09 0.09 0.09 0.07 0.05 0.03 0.03 0.03 0.03 0.04 0.04 0.04 0.04 0.05 0.04 0.04 0.05 0.05 0.04 0.04 0.03 0.03 0.02 0.02 0.02 0.01 0.01 0.01 0.01 0.02 0.02 0.01 0.01 0.01 0.02 0.03
0.05 0.07 0.06 0.06 0.06 0.06 0.08 0.09 0.08 0.07 0.06 0.06 0.04 0.04 0.03 0.03 0.03 0.03 0.04 0.04 0.04 0.04 0.04 0.03 0.02 0.01 0.02 0.02 0.02 0.01 0.01 0.01 0.01 0.01 0.01 0.01 0.01 0.01 0.01 0.01 0.02 0.03 0.03
0.02 0.03 0.03 0.03 0.04 0.05 0.05 0.06 0.06 0.05 0.05 0.05 0.05 0.05 0.05 0.05 0.05 0.05 0.05 0.04 0.04 0.03 0.02 0.02 0.02 0.02 0.02 0.02 0.02 0.01 0.01 0.01 0.01 0.01 0.01 0.01 0.01 0.02 0.02 0.02 0.02 0.01 0.01
MSLP
1006.99 1007.87 1008.81 1009.75 1010.63 1011.42 1012.11 1012.71 1013.24 1013.74 1014.24 1014.76 1015.31 1015.89 1016.45 1016.99 1017.47 1017.87 1018.17 1018.39 1018.53 1018.63 1018.70 1018.77 1018.85 1018.93 1019.02 1019.09 1019.12 1019.10 1019.01 1018.86 1018.65 1018.41 1018.15 1017.91 1017.71 1017.57 1017.49 1017.49 1017.55 1017.65 1017.79
1006.94 1007.80 1008.73 1009.67 1010.57 1011.37 1012.07 1012.68 1013.21 1013.71 1014.20 1014.71 1015.26 1015.83 1016.40 1016.94 1017.43 1017.84 1018.16 1018.39 1018.53 1018.63 1018.70 1018.77 1018.84 1018.94 1019.05 1019.15 1019.22 1019.25 1019.22 1019.12 1018.95 1018.72 1018.46 1018.19 1017.93 1017.71 1017.54 1017.42 1017.35 1017.33 1017.35
1007.13 1007.96 1008.87 1009.78 1010.66 1011.45 1012.15 1012.75 1013.28 1013.77 1014.25 1014.75 1015.27 1015.82 1016.38 1016.91 1017.39 1017.80 1018.12 1018.34 1018.49 1018.59 1018.66 1018.73 1018.81 1018.92 1019.05 1019.19 1019.31 1019.39 1019.42 1019.37 1019.24 1019.04 1018.79 1018.50 1018.20 1017.92 1017.66 1017.43 1017.25 1017.10 1016.98
1007.46 1008.25 1009.12 1009.99 1010.83 1011.59 1012.27 1012.86 1013.38 1013.86 1014.33 1014.81 1015.32 1015.84 1016.37 1016.88 1017.34 1017.73 1018.03 1018.25 1018.40 1018.49 1018.56 1018.64 1018.73 1018.86 1019.01 1019.17 1019.33 1019.45 1019.51 1019.51 1019.42 1019.25 1019.02 1018.74 1018.42 1018.10 1017.78 1017.47 1017.18 1016.92 1016.68
1007.79 1008.55 1009.35 1010.17 1010.96 1011.69 1012.34 1012.91 1013.43 1013.90 1014.37 1014.85 1015.34 1015.84 1016.35 1016.83 1017.26 1017.62 1017.90 1018.11 1018.25 1018.34 1018.41 1018.49 1018.59 1018.72 1018.88 1019.05 1019.22 1019.36 1019.45 1019.47 1019.41 1019.28 1019.07 1018.81 1018.50 1018.17 1017.83 1017.48 1017.13 1016.78 1016.44
1008.01 1008.72 1009.47 1010.24 1010.98 1011.66 1012.29 1012.85 1013.36 1013.84 1014.31 1014.79 1015.27 1015.76 1016.25 1016.70 1017.10 1017.45 1017.71 1017.91 1018.04 1018.13 1018.21 1018.29 1018.39 1018.51 1018.66 1018.83 1018.98 1019.12 1019.20 1019.23 1019.18 1019.07 1018.89 1018.66 1018.38 1018.08 1017.75 1017.39 1017.03 1016.64 1016.25
1008.05 1008.72 1009.42 1010.13 1010.82 1011.47 1012.07 1012.63 1013.14 1013.63 1014.11 1014.60 1015.08 1015.57 1016.03 1016.47 1016.86 1017.18 1017.44 1017.63 1017.77 1017.87 1017.96 1018.04 1018.14 1018.26 1018.39 1018.52 1018.65 1018.74 1018.80 1018.81 1018.76 1018.65 1018.50 1018.30 1018.07 1017.81 1017.52 1017.21 1016.86 1016.49 1016.08
1007.90 1008.54 1009.20 1009.86 1010.51 1011.13 1011.71 1012.25 1012.77 1013.27 1013.76 1014.25 1014.74 1015.22 1015.68 1016.11 1016.49 1016.81 1017.08 1017.29 1017.45 1017.58 1017.68 1017.78 1017.88 1017.99 1018.10 1018.19 1018.27 1018.32 1018.33 1018.29 1018.22 1018.10 1017.96 1017.79 1017.61 1017.41 1017.18 1016.93 1016.64 1016.30 1015.92
1007.62 1008.24 1008.87 1009.50 1010.11 1010.70 1011.25 1011.78 1012.29 1012.79 1013.28 1013.77 1014.26 1014.73 1015.19 1015.62 1016.00 1016.34 1016.63 1016.88 1017.08 1017.25 1017.40 1017.53 1017.65 1017.76 1017.85 1017.91 1017.94 1017.93 1017.88 1017.80 1017.69 1017.55 1017.40 1017.25 1017.10 1016.95 1016.78 1016.59 1016.36 1016.09 1015.75
1007.30 1007.91 1008.52 1009.12 1009.70 1010.25 1010.78 1011.28 1011.77 1012.25 1012.73 1013.21 1013.68 1014.14 1014.60 1015.02 1015.42 1015.79 1016.12 1016.42 1016.68 1016.92 1017.13 1017.31 1017.47 1017.60 1017.68 1017.73 1017.72 1017.67 1017.57 1017.43 1017.28 1017.11 1016.94 1016.79 1016.65 1016.52 1016.39 1016.25 1016.07 1015.85 1015.56
1007.00 1007.60 1008.20 1008.77 1009.32 1009.84 1010.34 1010.81 1011.27 1011.72 1012.17 1012.62 1013.07 1013.52 1013.96 1014.39 1014.81 1015.21 1015.59 1015.95 1016.28 1016.59 1016.88 1017.13 1017.35 1017.51 1017.62 1017.66 1017.64 1017.56 1017.43 1017.26 1017.06 1016.86 1016.67 1016.49 1016.34 1016.21 1016.09 1015.96 1015.80 1015.61 1015.36
1006.73 1007.32 1007.90 1008.46 1008.99 1009.48 1009.95 1010.40 1010.83 1011.25 1011.67 1012.08 1012.50 1012.93 1013.36 1013.79 1014.23 1014.66 1015.09 1015.51 1015.92 1016.31 1016.68 1017.01 1017.28 1017.50 1017.65 1017.72 1017.71 1017.63 1017.48 1017.29 1017.07 1016.84 1016.61 1016.41 1016.22 1016.06 1015.91 1015.76 1015.60 1015.40 1015.16
1006.45 1007.04 1007.61 1008.16 1008.67 1009.16 1009.62 1010.05 1010.47 1010.87 1011.26 1011.66 1012.06 1012.47 1012.89 1013.33 1013.78 1014.24 1014.71 1015.19 1015.66 1016.12 1016.55 1016.94 1017.28 1017.55 1017.75 1017.85 1017.87 1017.81 1017.68 1017.49 1017.27 1017.02 1016.77 1016.53 1016.30 1016.09 1015.89 1015.69 1015.48 1015.25 1014.99
1006.11 1006.68 1007.24 1007.79 1008.32 1008.83 1009.31 1009.76 1010.19 1010.60 1011.01 1011.41 1011.81 1012.23 1012.66 1013.10 1013.57 1014.05 1014.54 1015.05 1015.56 1016.05 1016.52 1016.96 1017.34 1017.65 1017.89 1018.03 1018.09 1018.07 1017.97 1017.80 1017.59 1017.35 1017.09 1016.82 1016.55 1016.28 1016.02 1015.75 1015.48 1015.19 1014.89
1005.64 1006.18 1006.75 1007.32 1007.89 1008.44 1008.99 1009.51 1010.00 1010.48 1010.94 1011.39 1011.83 1012.27 1012.72 1013.19 1013.66 1014.15 1014.65 1015.16 1015.67 1016.17 1016.64 1017.08 1017.47 1017.79 1018.05 1018.22 1018.32 1018.33 1018.27 1018.15 1017.98 1017.75 1017.50 1017.22 1016.93 1016.62 1016.29 1015.96 1015.62 1015.27 1014.91
1005.03 1005.54 1006.11 1006.72 1007.37 1008.02 1008.67 1009.31 1009.92 1010.52 1011.08 1011.62 1012.14 1012.65 1013.14 1013.63 1014.12 1014.61 1015.10 1015.58 1016.05 1016.51 1016.94 1017.34 1017.70 1018.00 1018.24 1018.42 1018.54 1018.58 1018.57 1018.49 1018.36 1018.18 1017.96 1017.69 1017.39 1017.05 1016.69 1016.31 1015.91 1015.49 1015.08
1004.34 1004.83 1005.42 1006.09 1006.83 1007.61 1008.41 1009.21 1009.99 1010.74 1011.46 1012.13 1012.75 1013.34 1013.90 1014.42 1014.92 1015.39 1015.85 1016.28 1016.69 1017.08 1017.43 1017.76 1018.04 1018.29 1018.49 1018.65 1018.76 1018.83 1018.84 1018.81 1018.73 1018.60 1018.41 1018.18 1017.89 1017.56 1017.18 1016.77 1016.33 1015.87 1015.41
1003.69 1004.17 1004.79 1005.54 1006.39 1007.32 1008.30 1009.28 1010.25 1011.18 1012.06 1012.88 1013.62 1014.30 1014.92 1015.47 1015.97 1016.43 1016.83 1017.20 1017.53 1017.82 1018.08 1018.31 1018.51 1018.68 1018.82 1018.93 1019.02 1019.09 1019.12 1019.12 1019.08 1019.00 1018.86 1018.67 1018.41 1018.10 1017.73 1017.31 1016.85 1016.37 1015.88
1003.26 1003.73 1004.39 1005.23 1006.20 1007.28 1008.42 1009.59 1010.73 1011.83 1012.86 1013.81 1014.66 1015.42 1016.08 1016.66 1017.15 1017.58 1017.93 1018.23 1018.48 1018.68 1018.84 1018.97 1019.07 1019.16 1019.23 1019.29 1019.35 1019.39 1019.43 1019.45 1019.44 1019.39 1019.29 1019.14 1018.92 1018.64 1018.29 1017.88 1017.42 1016.93 1016.41
1003.20 1003.68 1004.39 1005.30 1006.38 1007.59 1008.86 1010.16 1011.44 1012.67 1013.81 1014.84 1015.76 1016.56 1017.24 1017.82 1018.29 1018.68 1018.99 1019.22 1019.40 1019.52 1019.61 1019.66 1019.69 1019.71 1019.72 1019.73 1019.75 1019.77 1019.79 1019.81 1019.81 1019.78 1019.71 1019.58 1019.40 1019.14 1018.81 1018.42 1017.96 1017.46 1016.93
1003.60 1004.11 1004.87 1005.84 1006.99 1008.27 1009.63 1011.00 1012.35 1013.63 1014.80 1015.86 1016.78 1017.58 1018.24 1018.79 1019.23 1019.58 1019.84 1020.04 1020.17 1020.25 1020.29 1020.30 1020.29 1020.27 1020.24 1020.22 1020.21 1020.20 1020.20 1020.20 1020.19 1020.16 1020.09 1019.97 1019.79 1019.54 1019.22 1018.84 1018.39 1017.88 1017.34
1004.50 1005.04 1005.83 1006.83 1008.02 1009.31 1010.68 1012.05 1013.38 1014.62 1015.76 1016.76 1017.63 1018.36 1018.97 1019.46 1019.86 1020.16 1020.40 1020.58 1020.70 1020.78 1020.82 1020.83 1020.82 1020.80 1020.76 1020.73 1020.69 1020.66 1020.63 1020.60 1020.56 1020.50 1020.40 1020.26 1020.07 1019.81 1019.48 1019.09 1018.63 1018.12 1017.56
1005.81 1006.39 1007.20 1008.20 1009.36 1010.62 1011.92 1013.20 1014.43 1015.57 1016.58 1017.47 1018.22 1018.85 1019.37 1019.79 1020.13 1020.41 1020.63 1020.81 1020.96 1021.07 1021.15 1021.21 1021.23 1021.24 1021.23 1021.20 1021.15 1021.10 1021.04 1020.97 1020.88 1020.77 1020.62 1020.43 1020.20 1019.90 1019.55 1019.13 1018.65 1018.13 1017.56
1007.39 1008.01 1008.81 1009.78 1010.87 1012.03 1013.21 1014.35 1015.42 1016.39 1017.24 1017.97 1018.58 1019.08 1019.49 1019.83 1020.12 1020.38 1020.61 1020.82 1021.01 1021.18 1021.32 1021.44 1021.53 1021.59 1021.61 1021.60 1021.55 1021.49 1021.39 1021.27 1021.12 1020.94 1020.73 1020.47 1020.17 1019.83 1019.43 1018.98 1018.48 1017.93 1017.35
1009.07 1009.70 1010.49 1011.40 1012.39 1013.42 1014.44 1015.41 1016.29 1017.08 1017.74 1018.30 1018.76 1019.13 1019.45 1019.72 1019.98 1020.23 1020.47 1020.72 1020.96 1021.20 1021.42 1021.61 1021.76 1021.86 1021.92 1021.92 1021.88 1021.79 1021.65 1021.48 1021.26 1021.01 1020.72 1020.39 1020.03 1019.62 1019.17 1018.68 1018.15 1017.59 1017.01
1010.69 1011.32 1012.07 1012.91 1013.79 1014.68 1015.53 1016.33 1017.03 1017.64 1018.14 1018.55 1018.88 1019.16 1019.41 1019.64 1019.88 1020.13 1020.40 1020.69 1020.98 1021.27 1021.55 1021.79 1021.98 1022.12 1022.19 1022.20 1022.14 1022.02 1021.84 1021.61 1021.33 1021.00 1020.64 1020.24 1019.81 1019.35 1018.85 1018.33 1017.78 1017.22 1016.64
Thickness
5757 5754 5753 5750 5749 5747 5745 5744 5743 5742 5740 5738 5737 5736 5735 5734 5733 5732 5733 5732 5730 5730 5729 5729 5727 5727 5729 5730 5729 5728 5726 5724 5720 5724 5726 5724 5718 5716 5716 5714 5713 5710 5710
5757 5754 5751 5750 5748 5746 5745 5743 5742 5740 5739 5737 5736 5735 5734 5734 5733 5731 5730 5731 5729 5728 5727 5727 5726 5726 5723 5724 5725 5724 5724 5722 5718 5716 5719 5719 5716 5714 5713 5710 5712 5712 5710
5757 5753 5750 5749 5747 5745 5744 5743 5741 5740 5738 5737 5735 5734 5733 5733 5732 5731 5730 5729 5728 5727 5726 5725 5724 5722 5720 5721 5719 5721 5721 5720 5717 5715 5715 5716 5715 5714 5710 5709 5710 5707 5707
5756 5753 5750 5748 5747 5746 5744 5742 5740 5739 5737 5735 5734 5733 5733 5732 5731 5730 5729 5727 5726 5725 5725 5724 5723 5721 5719 5718 5717 5715 5715 5714 5713 5711 5711 5712 5710 5710 5706 5705 5705 5706 5705
5754 5751 5750 5749 5747 5745 5743 5741 5740 5738 5737 5735 5734 5733 5732 5731 5731 5730 5728 5726 5724 5722 5722 5721 5721 5720 5718 5715 5716 5714 5712 5709 5709 5708 5707 5707 5707 5704 5702 5703 5701 5701 5702
5752 5750 5749 5748 5746 5744 5742 5740 5738 5737 5735 5733 5732 5732 5731 5731 5729 5726 5725 5725 5723 5721 5719 5719 5719 5716 5714 5710 5709 5707 5706 5705 5704 5702 5703 5701 5699 5700 5699 5697 5696 5694 5693
5751 5750 5748 5746 5744 5742 5741 5739 5736 5735 5733 5731 5731 5730 5729 5728 5725 5723 5721 5721 5721 5720 5719 5717 5718 5719 5714 5712 5707 5703 5701 5699 5697 5697 5698 5697 5696 5696 5692 5691 5689 5686 5686
5749 5747 5746 5744 5742 5741 5739 5737 5735 5733 5732 5730 5729 5729 5728 5726 5722 5720 5717 5717 5718 5718 5717 5716 5714 5714 5712 5709 5707 5705 5702 5700 5696 5693 5693 5693 5691 5690 5687 5684 5683 5681 5680
5747 5745 5745 5743 5740 5738 5737 5735 5734 5732 5730 5730 5729 5728 5726 5725 5720 5717 5713 5715 5715 5715 5715 5714 5712 5710 5707 5703 5701 5699 5698 5697 5694 5690 5688 5686 5682 5680 5678 5678 5677 5674 5674
5746 5745 5743 5741 5738 5737 5735 5734 5733 5731 5729 5729 5728 5727 5725 5724 5719 5715 5711 5714 5714 5713 5711 5710 5706 5704 5701 5698 5697 5695 5692 5692 5690 5688 5682 5680 5677 5675 5671 5669 5669 5667 5667
5745 5743 5740 5738 5736 5735 5733 5732 5730 5729 5728 5726 5725 5724 5723 5721 5717 5712 5709 5711 5711 5709 5708 5705 5703 5698 5694 5691 5690 5690 5687 5684 5683 5681 5679 5677 5674 5672 5669 5664 5662 5660 5658
5740 5738 5737 5735 5734 5734 5730 5728 5728 5726 5724 5721 5720 5718 5718 5716 5713 5709 5706 5704 5704 5704 5702 5701 5697 5691 5687 5684 5682 5680 5678 5675 5675 5674 5672 5670 5668 5665 5662 5659 5655 5651 5647
5734 5732 5732 5731 5730 5729 5727 5725 5723 5721 5720 5718 5716 5714 5712 5712 5709 5704 5700 5698 5696 5696 5695 5691 5687 5682 5679 5677 5673 5672 5670 5670 5668 5666 5664 5662 5660 5657 5653 5650 5646 5642 5638
5727 5726 5725 5724 5723 5722 5720 5720 5718 5716 5715 5714 5712 5709 5708 5706 5704 5701 5697 5692 5688 5686 5685 5681 5677 5675 5672 5670 5668 5665 5664 5663 5661 5658 5656 5653 5651 5647 5644 5641 5636 5633 5629
5721 5720 5718 5718 5716 5712 5710 5708 5708 5705 5706 5706 5705 5703 5700 5697 5693 5692 5692 5689 5687 5683 5679 5676 5674 5671 5667 5665 5662 5660 5658 5655 5651 5648 5646 5643 5639 5636 5632 5629 5624 5621 5618
5713 5712 5711 5711 5708 5706 5701 5696 5691 5692 5691 5691 5690 5690 5687 5684 5681 5680 5678 5676 5674 5672 5670 5667 5664 5662 5659 5657 5654 5651 5648 5645 5642 5639 5635 5631 5628 5624 5621 5617 5614 5610 5606
5704 5703 5703 5702 5701 5698 5695 5692 5687 5681 5678 5677 5675 5674 5673 5670 5669 5667 5665 5663 5661 5660 5659 5657 5654 5651 5649 5647 5644 5641 5637 5634 5630 5626 5623 5619 5616 5613 5609 5605 5601 5598 5596
5696 5694 5694 5693 5692 5691 5689 5686 5683 5679 5674 5668 5663 5660 5659 5658 5656 5655 5653 5652 5650 5648 5648 5646 5643 5640 5637 5634 5631 5628 5624 5621 5617 5613 5610 5606 5603 5600 5596 5593 5589 5585 5582
5686 5686 5685 5684 5683 5681 5679 5676 5673 5670 5667 5661 5656 5651 5647 5645 5644 5642 5642 5643 5641 5639 5636 5634 5631 5627 5624 5621 5617 5614 5610 5607 5602 5600 5597 5592 5589 5586 5583 5579 5576 5570 5567
5675 5674 5675 5674 5672 5670 5668 5665 5662 5658 5655 5650 5646 5643 5640 5639 5638 5634 5632 5631 5630 5627 5624 5620 5617 5614 5611 5607 5604 5600 5597 5593 5589 5586 5582 5579 5576 5572 5569 5565 5562 5559 5557
5666 5664 5663 5663 5661 5658 5655 5652 5649 5647 5643 5638 5633 5630 5628 5629 5626 5623 5621 5618 5616 5613 5609 5606 5604 5601 5597 5593 5590 5586 5583 5579 5575 5571 5568 5564 5561 5557 5554 5551 5548 5545 5543
5655 5653 5652 5650 5648 5645 5643 5641 5637 5634 5630 5627 5622 5619 5615 5616 5613 5610 5607 5604 5601 5598 5595 5592 5589 5585 5581 5578 5574 5571 5568 5564 5560 5556 5552 5549 5546 5544 5541 5538 5535 5531 5529
5644 5643 5641 5638 5635 5631 5630 5628 5625 5622 5619 5615 5612 5609 5606 5603 5599 5595 5592 5589 5586 5583 5580 5577 5574 5570 5566 5562 5559 5555 5552 5548 5543 5539 5536 5534 5532 5530 5528 5525 5521 5519 5516
5632 5631 5628 5625 5623 5620 5617 5615 5612 5610 5606 5603 5599 5595 5592 5588 5585 5581 5578 5575 5572 5569 5566 5563 5559 5555 5550 5547 5543 5540 5534 5529 5525 5523 5521 5519 5518 5516 5514 5511 5509 5506 5503
5620 5618 5615 5612 5609 5606 5604 5601 5598 5596 5593 5589 5585 5581 5577 5574 5571 5567 5564 5561 5558 5554 5551 5548 5544 5540 5535 5531 5527 5522 5516 5513 5510 5507 5506 5506 5504 5502 5500 5497 5495 5493 5491
5607 5605 5602 5599 5596 5593 5590 5587 5584 5581 5578 5574 5570 5567 5564 5561 5558 5555 5551 5548 5545 5541 5537 5533 5529 5524 5520 5516 5510 5506 5502 5499 5496 5494 5492 5492 5491 5489 5486 5484 5482 5481 5480